DW0946 Weather Reports


Display with metric or nautical units.
time (UTC)temp
F
wind
direction
speed
MPH
gust
MPH
rain 1hr
in
rain 24hr
in
rain mn
in
humidity
%
barometer
mb
20180618132423 59 195 0.0 0.0 0.00 0.00 0.00 84 1026.8
20180618130920 58 195 0.0 0.0 0.00 0.00 0.00 84 1026.6
20180618125422 59 191 0.0 0.0 0.00 0.00 0.00 83 1026.3
20180618123920 59 263 0.0 0.0 0.00 0.00 0.00 84 1026.3
20180618122417 59 263 0.0 0.0 0.00 0.00 0.00 84 1026.2
20180618120918 58 263 0.0 0.0 0.00 0.00 0.00 85 1026.2
20180618115421 58 249 0.0 0.0 0.00 0.00 0.00 85 1026.2
20180618113916 58 249 0.0 0.0 0.00 0.00 0.00 85 1026.1
20180618112414 59 280 0.0 0.0 0.00 0.00 0.00 84 1026.0
20180618110914 59 281 0.0 0.0 0.00 0.00 0.00 84 1026.0
20180618105411 59 282 0.0 0.0 0.00 0.00 0.00 84 1026.0
20180618103912 59 281 0.0 0.0 0.00 0.00 0.00 83 1025.9
20180618102409 59 280 0.0 0.0 0.00 0.00 0.00 83 1026.0
20180618100910 59 284 0.0 0.0 0.00 0.00 0.00 82 1026.0
20180618095409 60 284 0.0 0.0 0.00 0.00 0.00 83 1026.0
20180618093906 60 284 0.0 0.0 0.00 0.00 0.00 83 1026.1
20180618092407 60 284 0.0 0.0 0.00 0.00 0.00 83 1026.2
20180618090906 60 284 0.0 0.0 0.00 0.00 0.00 83 1026.3
20180618085403 60 302 0.0 0.0 0.00 0.00 0.00 83 1026.4
20180618083903 59 274 0.0 0.0 0.00 0.00 0.00 83 1026.5
20180618082403 59 274 0.0 1.0 0.00 0.00 0.00 84 1026.4
20180618080901 59 273 0.0 0.0 0.00 0.00 0.00 84 1026.6
20180618075359 59 273 0.0 0.0 0.00 0.00 0.00 84 1026.7
20180618073857 59 288 0.0 0.0 0.00 0.00 0.00 85 1026.8
20180618072357 59 266 0.0 2.0 0.00 0.00 0.00 85 1026.9
20180618070859 59 276 0.0 3.0 0.00 0.00 0.00 85 1026.9
20180618065354 59 263 0.0 3.0 0.00 0.00 0.00 85 1027.0
20180618063853 59 303 0.0 2.0 0.00 0.00 0.00 84 1027.0
20180618062354 59 282 0.0 3.0 0.00 0.00 0.00 83 1027.0
20180618060853 60 282 0.0 3.0 0.00 0.00 0.00 83 1027.0
20180618055351 60 285 0.0 3.0 0.00 0.00 0.00 83 1027.0
20180618053851 60 255 1.0 4.0 0.00 0.00 0.00 82 1027.1
20180618052351 60 276 1.0 4.0 0.00 0.00 0.00 82 1027.0
20180618050849 60 195 1.0 3.0 0.00 0.00 0.00 82 1027.0
20180618045347 60 245 2.0 4.0 0.00 0.00 0.00 82 1026.9
20180618043845 60 191 1.0 5.0 0.00 0.00 0.00 81 1026.8
20180618042344 60 267 1.0 5.0 0.00 0.00 0.00 81 1026.7
20180618040847 60 208 1.0 5.0 0.00 0.00 0.00 81 1026.7
20180618035341 60 273 2.0 5.0 0.00 0.00 0.00 80 1026.5
20180618033841 60 281 2.0 5.0 0.00 0.00 0.00 79 1026.3
20180618032338 60 246 2.0 6.0 0.00 0.00 0.00 78 1026.2
20180618030840 61 238 2.0 5.0 0.00 0.00 0.00 78 1026.1
20180618025338 61 269 2.0 6.0 0.00 0.00 0.00 77 1026.1
20180618023840 61 214 2.0 6.0 0.00 0.00 0.00 77 1026.1
20180618022336 62 186 2.0 5.0 0.00 0.00 0.00 75 1026.0
20180618020836 62 183 2.0 8.0 0.00 0.00 0.00 75 1026.0
20180618015336 62 212 3.0 9.0 0.00 0.00 0.00 74 1026.1
20180618013840 63 249 2.0 7.0 0.00 0.00 0.00 72 1026.1
20180618012337 63 239 2.0 7.0 0.00 0.00 0.00 71 1026.0
20180618010833 64 276 3.0 7.0 0.00 0.00 0.00 69 1026.0
20180618005336 64 215 4.0 8.0 0.00 0.00 0.00 67 1026.0
20180618003835 65 243 4.0 8.0 0.00 0.00 0.00 65 1026.0
20180618002332 65 212 4.0 9.0 0.00 0.00 0.00 63 1026.0
20180618000832 66 204 3.0 9.0 0.00 0.00 0.00 63 1026.0
20180617235331 67 219 4.0 13.0 0.00 0.00 0.00 61 1026.2
20180617233828 67 219 4.0 8.0 0.00 0.00 0.00 62 1026.1
20180617232328 67 183 4.0 8.0 0.00 0.00 0.00 61 1026.0
20180617230827 68 242 3.0 10.0 0.00 0.00 0.00 61 1026.1
20180617225326 68 237 2.0 10.0 0.00 0.00 0.00 59 1026.2
20180617223825 67 285 4.0 9.0 0.00 0.00 0.00 61 1026.2
20180617222328 66 281 4.0 11.0 0.00 0.00 0.00 61 1026.2
20180617220824 66 199 1.0 12.0 0.00 0.00 0.00 62 1026.2
20180617215321 68 246 3.0 8.0 0.00 0.00 0.00 59 1026.1
20180617213820 69 179 5.0 11.0 0.00 0.00 0.00 58 1026.2
20180617212319 69 139 4.0 9.0 0.00 0.00 0.00 57 1026.1
20180617210818 68 233 4.0 10.0 0.00 0.00 0.00 60 1026.0
20180617205319 68 252 4.0 11.0 0.00 0.00 0.00 58 1026.1
20180617203815 68 179 4.0 9.0 0.00 0.00 0.00 61 1026.2
20180617202313 67 256 5.0 9.0 0.00 0.00 0.00 61 1026.1
20180617200811 67 262 3.0 8.0 0.00 0.00 0.00 61 1026.0
20180617195311 66 259 2.0 9.0 0.00 0.00 0.00 61 1026.1
20180617193809 65 281 5.0 10.0 0.00 0.00 0.00 62 1026.2
20180617192306 65 192 4.0 9.0 0.00 0.00 0.00 63 1026.2
20180617190806 65 195 3.0 8.0 0.00 0.00 0.00 64 1026.1
20180617185306 65 263 2.0 9.0 0.00 0.00 0.00 64 1026.1
20180617183802 64 252 3.0 8.0 0.00 0.00 0.00 66 1026.1
20180617182300 64 218 3.0 8.0 0.00 0.00 0.00 67 1026.1
20180617180800 64 204 3.0 7.0 0.00 0.00 0.00 67 1026.2
20180617175259 63 252 1.0 7.0 0.00 0.00 0.00 69 1026.1
20180617173758 63 180 5.0 10.0 0.00 0.00 0.00 68 1026.1
20180617172258 64 292 2.0 5.0 0.00 0.00 0.00 66 1026.1
20180617170753 63 270 3.0 6.0 0.00 0.00 0.00 68 1025.9
20180617165252 63 319 2.0 8.0 0.00 0.00 0.00 68 1025.9
20180617163751 63 283 3.0 5.0 0.00 0.00 0.00 64 1025.9
20180617162249 62 259 3.0 6.0 0.00 0.00 0.00 64 1025.8
20180617160748 62 212 2.0 5.0 0.00 0.00 0.00 65 1025.8
20180617155248 62 256 0.0 4.0 0.00 0.00 0.00 66 1025.8
20180617153743 61 276 1.0 3.0 0.00 0.00 0.00 68 1025.7
20180617152240 61 217 2.0 4.0 0.00 0.00 0.00 70 1025.7
20180617150740 60 162 3.0 7.0 0.00 0.00 0.00 70 1025.7
20180617145235 60 212 2.0 5.0 0.00 0.00 0.00 72 1025.5
20180617143734 60 150 2.0 5.0 0.00 0.00 0.00 73 1025.4
20180617142229 59 251 1.0 5.0 0.00 0.00 0.00 73 1025.2
20180617140728 59 177 1.0 4.0 0.00 0.00 0.00 74 1025.1
20180617135227 59 162 1.0 4.0 0.00 0.00 0.00 75 1024.9
20180617133726 59 262 1.0 3.0 0.00 0.00 0.00 75 1024.8